Tracking 28790 objects as of 19-Apr-2024
HD Live streaming from Space Station
objects crossing your sky now

COSMOS 1275 DEB

Track COSMOS 1275 DEB now!
10-day predictions


NORAD ID: 27735
Int'l Code: 1981-053MW
Perigee: 896.8 km
Apogee: 1,037.6 km
Inclination: 83.0 °
Period: 104.3 minutes
Semi major axis: 7338 km
RCS: 0.0169 m2 (small)
Launch date: June 4, 1981
Source: Commonwealth of Independent States (former USSR) (CIS)
Launch site: PLESETSK MISSILE AND SPACE COMPLEX (PKMTR)

Note: This is SATELLITE DEBRIS
Your satellite tracking list
Your tracking list is empty




NASA's NSSDC Master Catalog

Two Line Element Set (TLE):
1 27735U 81053MQ  24108.66369421  .00004515  00000-0  41107-2 0  9993
2 27735  83.0465  80.3479 0095936 310.3999 173.2251 13.81089990515571
Source of the keplerian elements: AFSPC